Вернуться в каталог

COSMOS 1089

АктивенВоенныеPO
NORAD 11308·PAYLOAD·🇷🇺 Russia

Запущен Mar 21, 1979 с Plesetsk Cosmodrome

Loading…

Ближайшие Пролёты (ближайшие 24 часа)

TLE

СвежийSource: Space-Track

Эпоха: Sep 14, 2026, 18:49 UTC

1 11308U 79026A   26257.78409024  .00000036  00000-0  21065-4 0  9990
2 11308  82.9709  88.9979 0023539 124.6546 246.0993 13.75425407381700

Отслеживайте COSMOS 1089 в реальном времени с AllMySat

Download on the App Store